Location: Seattle
(47.6064°N, 122.3308°W)
Time: 01:23:04
(UTC-08:00)

CZ-6A DEB - Pass Details

Date: 14 December 2023
Orbit: 679 x 823 km, 98.7° (Epoch: 23 February)

Event Time Altitude Azimuth Distance (km) Brightness Sun altitude
Rises 06:01:06 0° 26° (NNE) 3,284 ? -17.4°
Reaches altitude 10° 06:03:59 10° 41° (NE) 2,321 ? -16.9°
Maximum altitude 06:07:53 22° 91° (E) 1,611 ? -16.3°
Drops below altitude 10° 06:11:39 10° 142° (SE) 2,229 ? -15.7°
Sets 06:14:21 0° 157° (SSE) 3,117 ? -15.2°
